Regional Weather Roundup
Issued by NWS

Home | Current Version | Previous Version | Text Only | Print | Product List | Glossary Off
Versions: 1 2 3 4 5 6 7 8 9 10 11 12 13 14 15 16 17 18 19 20 21 22 23 24 25 26 27 28 29 30 31 32 33 34 35 36 37 38 39 40 41 42 43 44 45 46 47 48 49 50

000
ASUS43 KBIS 210110
RWRND

NORTH DAKOTA REGIONAL WEATHER ROUNDUP
NATIONAL WEATHER SERVICE BISMARCK ND
700 PM CST FRI JAN 20 2017

NOTE: "FAIR" INDICATES FEW OR NO CLOUDS BELOW 12,000 FEET WITH NO
SIGNIFICANT WEATHER AND/OR OBSTRUCTIONS TO VISIBILITY.


NDZ001>003-009>011-017-210200-
NORTHWEST NORTH DAKOTA

CITY           SKY/WX    TMP DP  RH WIND       PRES   REMARKS
WILLISTON      FAIR      27  25  92 SW6       29.35R
MINOT          CLOUDY    28  26  92 S8        29.35S FOG     WCI  20
MINOT AFB      FRZ DRZL  24  22  94 SW8       29.35S FOG     WCI  15
$$

NDZ018>021-031>035-040>046-210200-
SOUTHWEST NORTH DAKOTA

CITY           SKY/WX    TMP DP  RH WIND       PRES   REMARKS
BISMARCK       CLOUDY    31  30  96 W3        29.35F FOG
DICKINSON      FAIR      30  26  85 NW9       29.30F
GARRISON         N/A     25  24  96 SW3       29.34S
HETTINGER ARPT CLOUDY    31  27  85 N9        29.33S
$$

NDZ004>008-012>016-024-026-027-054-210200-
NORTHEAST NORTH DAKOTA

CITY           SKY/WX    TMP DP  RH WIND       PRES   REMARKS
GRAND FORKS    CLOUDY    36  33  89 SE10      29.45S
GRND FRKS AFB  CLOUDY    32  32 100 SE10      29.45S
DEVILS LAKE    CLOUDY    33  32  96 SE9       29.40R FOG
$$

NDZ022-023-025-028>030-036>039-047>053-210200-
SOUTHEAST NORTH DAKOTA

CITY           SKY/WX    TMP DP  RH WIND       PRES   REMARKS
FARGO          CLOUDY    39  35  86 SE10      29.45R
JAMESTOWN      CLOUDY    33  33 100 SE12      29.36S FOG
$$





USA.gov is the U.S. government's official web portal to all federal, state and local government web resources and services.